• In Portugal
  • List of Countries
  • For 7 days
  • Water Temperature
  • Satellite Maps
  • Weather Map
  • Weather Widgets
  • user-avatar
    Login

    Hourly Weather İzmir

    Today, 20 October, Friday

    Time Temperature Precipitation Wind Pressure Humidity
    00:00 +17°C° 0 mm 0 mps 754 mmHg 62%
    01:00 +17°C° 0 mm 0 mps 754 mmHg 63%
    02:00 +16°C° 0 mm 0 mps 754 mmHg 63%
    03:00 +16°C° 0 mm 0 mps 753 mmHg 64%
    04:00 +16°C° 0 mm 0 mps 753 mmHg 64%
    05:00 +15°C° 0 mm 0 mps 753 mmHg 64%
    06:00 +16°C° 0 mm 0 mps 753 mmHg 60%
    07:00 +20°C° 0 mm 1 mps 754 mmHg 56%
    08:00 +21°C° 0 mm 1 mps 754 mmHg 51%
    09:00 +23°C° 0 mm 1 mps 754 mmHg 45%
    10:00 +25°C° 0 mm 1 mps 754 mmHg 39%
    11:00 +27°C° 0 mm 1 mps 754 mmHg 32%
    12:00 +28°C° 0 mm 1 mps 754 mmHg 31%
    13:00 +28°C° 0 mm 2 mps 754 mmHg 29%
    14:00 +29°C° 0 mm 2 mps 754 mmHg 28%
    15:00 +27°C° 0 mm 2 mps 753 mmHg 32%
    16:00 +26°C° 0 mm 2 mps 753 mmHg 36%
    17:00 +25°C° 0 mm 2 mps 753 mmHg 39%
    18:00 +23°C° 0 mm 2 mps 753 mmHg 44%
    19:00 +21°C° 0 mm 2 mps 754 mmHg 49%
    20:00 +20°C° 0 mm 1 mps 754 mmHg 54%
    21:00 +20°C° 0 mm 1 mps 754 mmHg 56%
    22:00 +19°C° 0 mm 1 mps 754 mmHg 57%
    23:00 +19°C° 0 mm 1 mps 754 mmHg 59%

    Tomorrow, 21 October, Saturday

    Time Temperature Precipitation Wind Pressure Humidity
    00:00 +18°C° 0 mm 1 mps 754 mmHg 60%
    01:00 +18°C° 0 mm 1 mps 754 mmHg 61%
    02:00 +18°C° 0 mm 1 mps 754 mmHg 62%
    03:00 +16°C° 0 mm 1 mps 754 mmHg 62%
    04:00 +16°C° 0 mm 1 mps 753 mmHg 63%
    05:00 +16°C° 0 mm 1 mps 753 mmHg 63%
    06:00 +18°C° 0 mm 1 mps 753 mmHg 59%
    07:00 +19°C° 0 mm 1 mps 753 mmHg 55%
    08:00 +20°C° 0 mm 1 mps 754 mmHg 51%
    09:00 +22°C° 0 mm 1 mps 754 mmHg 45%
    10:00 +24°C° 0 mm 1 mps 753 mmHg 38%
    11:00 +26°C° 0 mm 1 mps 753 mmHg 32%
    12:00 +27°C° 0 mm 2 mps 753 mmHg 30%
    13:00 +28°C° 0 mm 2 mps 753 mmHg 28%
    14:00 +28°C° 0 mm 3 mps 752 mmHg 25%
    15:00 +27°C° 0 mm 3 mps 752 mmHg 29%
    16:00 +26°C° 0 mm 3 mps 752 mmHg 32%
    17:00 +24°C° 0 mm 3 mps 752 mmHg 35%
    18:00 +23°C° 0 mm 2 mps 752 mmHg 39%
    19:00 +20°C° 0 mm 2 mps 752 mmHg 44%
    20:00 +19°C° 0 mm 2 mps 752 mmHg 49%
    21:00 +18°C° 0 mm 2 mps 752 mmHg 51%
    22:00 +18°C° 0 mm 2 mps 752 mmHg 52%
    23:00 +17°C° 0 mm 2 mps 752 mmHg 54%

    Day after tomorrow, 22 October, Sunday

    Time Temperature Precipitation Wind Pressure Humidity
    00:00 +17°C° 0 mm 2 mps 752 mmHg 54%
    01:00 +17°C° 0 mm 2 mps 752 mmHg 55%
    02:00 +16°C° 0 mm 2 mps 752 mmHg 56%
    03:00 +16°C° 0 mm 2 mps 751 mmHg 57%
    04:00 +15°C° 0 mm 2 mps 751 mmHg 58%
    05:00 +15°C° 0 mm 2 mps 751 mmHg 59%
    06:00 +16°C° 0 mm 2 mps 751 mmHg 56%
    07:00 +17°C° 0 mm 2 mps 751 mmHg 53%
    08:00 +18°C° 0 mm 2 mps 752 mmHg 50%
    09:00 +20°C° 0 mm 2 mps 752 mmHg 43%
    10:00 +23°C° 0 mm 2 mps 752 mmHg 35%
    11:00 +26°C° 0 mm 2 mps 752 mmHg 28%
    12:00 +27°C° 0 mm 2 mps 751 mmHg 25%
    13:00 +27°C° 0 mm 2 mps 751 mmHg 23%
    14:00 +28°C° 0 mm 2 mps 750 mmHg 20%
    15:00 +27°C° 0 mm 2 mps 750 mmHg 23%
    16:00 +26°C° 0 mm 2 mps 750 mmHg 26%
    17:00 +24°C° 0 mm 2 mps 750 mmHg 29%
    18:00 +23°C° 0 mm 2 mps 750 mmHg 32%
    19:00 +20°C° 0 mm 2 mps 750 mmHg 35%
    20:00 +19°C° 0 mm 2 mps 750 mmHg 39%
    21:00 +18°C° 0 mm 2 mps 750 mmHg 41%
    22:00 +19°C° 0 mm 1 mps 750 mmHg 42%
    23:00 +18°C° 0 mm 1 mps 750 mmHg 44%

    23 October, Monday

    Time Temperature Precipitation Wind Pressure Humidity
    00:00 +18°C° 0 mm 1 mps 750 mmHg 45%
    01:00 +16°C° 0 mm 1 mps 749 mmHg 46%
    02:00 +16°C° 0 mm 1 mps 749 mmHg 47%
    03:00 +16°C° 0 mm 1 mps 749 mmHg 48%
    04:00 +15°C° 0 mm 1 mps 749 mmHg 48%
    05:00 +15°C° 0 mm 1 mps 749 mmHg 49%
    06:00 +16°C° 0 mm 1 mps 749 mmHg 46%
    07:00 +18°C° 0 mm 1 mps 749 mmHg 43%
    08:00 +19°C° 0 mm 1 mps 749 mmHg 41%
    09:00 +21°C° 0 mm 2 mps 748 mmHg 35%
    10:00 +24°C° 0 mm 2 mps 748 mmHg 30%
    11:00 +26°C° 0 mm 2 mps 748 mmHg 25%
    12:00 +27°C° 0 mm 3 mps 747 mmHg 25%
    13:00 +27°C° 0 mm 4 mps 747 mmHg 25%
    14:00 +28°C° 0 mm 4 mps 746 mmHg 24%
    15:00 +26°C° 0 mm 4 mps 746 mmHg 30%
    16:00 +23°C° 0 mm 4 mps 746 mmHg 36%
    17:00 +22°C° 0 mm 3 mps 746 mmHg 41%
    18:00 +20°C° 0 mm 3 mps 746 mmHg 49%
    19:00 +19°C° 0 mm 3 mps 746 mmHg 56%
    20:00 +17°C° 0 mm 3 mps 746 mmHg 63%
    21:00 +17°C° 0 mm 4 mps 746 mmHg 65%
    22:00 +17°C° 0 mm 4 mps 746 mmHg 67%
    23:00 +15°C° 0 mm 4 mps 746 mmHg 69%

    24 October, Tuesday

    Time Temperature Precipitation Wind Pressure Humidity
    00:00 +15°C° 0.1 mm 4 mps 746 mmHg 68%
    01:00 +15°C° 0.1 mm 4 mps 745 mmHg 67%
    02:00 +15°C° 0.1 mm 4 mps 745 mmHg 66%
    03:00 +15°C° 0 mm 4 mps 745 mmHg 65%
    04:00 +14°C° 0 mm 4 mps 745 mmHg 65%
    05:00 +14°C° 0 mm 4 mps 745 mmHg 64%
    06:00 +15°C° 0.2 mm 4 mps 745 mmHg 62%
    07:00 +17°C° 0.2 mm 4 mps 745 mmHg 60%
    08:00 +18°C° 0.2 mm 4 mps 745 mmHg 57%
    09:00 +19°C° 0.7 mm 5 mps 744 mmHg 56%
    10:00 +21°C° 0.7 mm 5 mps 744 mmHg 54%
    11:00 +23°C° 0.7 mm 6 mps 744 mmHg 52%
    12:00 +23°C° 1.6 mm 6 mps 744 mmHg 55%
    13:00 +22°C° 1.6 mm 6 mps 744 mmHg 58%
    14:00 +22°C° 1.6 mm 7 mps 744 mmHg 61%
    15:00 +21°C° 2.1 mm 6 mps 744 mmHg 65%
    16:00 +20°C° 2.1 mm 6 mps 744 mmHg 68%
    17:00 +20°C° 2.1 mm 5 mps 744 mmHg 71%
    18:00 +19°C° 1.1 mm 4 mps 745 mmHg 74%
    19:00 +18°C° 1.1 mm 3 mps 745 mmHg 77%
    20:00 +17°C° 1.1 mm 3 mps 745 mmHg 81%
    21:00 +17°C° 0.7 mm 2 mps 745 mmHg 82%
    22:00 +17°C° 0.7 mm 2 mps 745 mmHg 83%
    23:00 +16°C° 0.7 mm 2 mps 745 mmHg 84%

    25 October, Wednesday

    Time Temperature Precipitation Wind Pressure Humidity
    00:00 +16°C° 0.5 mm 2 mps 746 mmHg 84%
    01:00 +16°C° 0.5 mm 2 mps 746 mmHg 84%
    02:00 +16°C° 0.5 mm 2 mps 746 mmHg 84%
    03:00 +16°C° 0.3 mm 2 mps 746 mmHg 84%
    04:00 +15°C° 0.3 mm 2 mps 746 mmHg 85%
    05:00 +15°C° 0.3 mm 2 mps 746 mmHg 86%
    06:00 +16°C° 0.3 mm 2 mps 746 mmHg 83%
    07:00 +16°C° 0.3 mm 2 mps 746 mmHg 81%
    08:00 +17°C° 0.3 mm 2 mps 746 mmHg 78%
    09:00 +18°C° 0.2 mm 2 mps 746 mmHg 71%
    10:00 +20°C° 0.2 mm 2 mps 746 mmHg 64%
    11:00 +23°C° 0.2 mm 2 mps 747 mmHg 58%
    12:00 +23°C° 0.5 mm 2 mps 746 mmHg 57%
    13:00 +23°C° 0.5 mm 2 mps 746 mmHg 56%
    14:00 +23°C° 0.5 mm 2 mps 746 mmHg 55%
    15:00 +21°C° 1.1 mm 2 mps 746 mmHg 60%
    16:00 +20°C° 1.1 mm 2 mps 747 mmHg 65%
    17:00 +20°C° 1.1 mm 1 mps 747 mmHg 71%
    18:00 +20°C° 0.3 mm 1 mps 747 mmHg 73%
    19:00 +19°C° 0.3 mm 1 mps 747 mmHg 75%
    20:00 +18°C° 0.3 mm 1 mps 748 mmHg 77%
    21:00 +18°C° 0 mm 1 mps 748 mmHg 78%
    22:00 +18°C° 0 mm 1 mps 748 mmHg 80%
    23:00 +16°C° 0 mm 1 mps 749 mmHg 82%
    Show more